{"data":{"norad_id":68923,"intl_designator":"2026-098E","name":"KUIPER-00405","alt_names":[],"object_type":"PAYLOAD","status":"ACTIVE","operator":null,"country":"US","launch_date":"2026-04-30","launch_site_code":"FRGUI","launch_vehicle":null,"mission":null,"orbit_class":"UNKNOWN","rcs_meters":null,"size_class":null,"mass_kg":null,"dimensions":null,"purposes":[],"wikipedia_slug":null,"has_3d_model":false,"image_url":null,"decayed_at":null,"tle_current":{"epoch":"2026-05-25T02:03:44.690688Z","epoch_age_seconds":67372,"freshness":"FRESH","line1":"1 68923U 26098E   26145.08593392  .00015571  00000+0  50481-3 0  9999","line2":"2 68923  51.8766 179.4219 0015164  66.7354 293.5225 15.32063343  3791","mean_motion":15.32063343,"eccentricity":0.0015164,"inclination_deg":51.8766,"raan_deg":179.4219,"arg_perigee_deg":66.7354,"mean_anomaly_deg":293.5225,"bstar":0.00050481,"rev_number":379,"period_min":93.990891863536,"perigee_km":459.27310773506,"apogee_km":480.04109768976,"semimajor_km":6847.7941027124,"source":"CELESTRAK","updated_at":"2026-05-25T13:38:08.793099Z"}}}